Weather History for Brussels, Belgium

Change the Weather History Date:

Thursday, February 6, 2014

  Actual Average Record
Temperature  
Mean Temperature 46 °F -  
Max Temperature 50 °F 44 °F 59 °F (2004)
Min Temperature 41 °F 35 °F 15 °F (2012)
Degree Days  
Heating Degree Days 20    
Moisture  
Dew Point 38 °F    
Average Humidity 74    
Maximum Humidity 93    
Minimum Humidity 59    
Precipitation  
Precipitation 0.31 in - - ()
Sea Level Pressure  
Sea Level Pressure 29.48 in    
Wind  
Wind Speed 17 mph ()    
Max Wind Speed 23 mph    
Max Gust Speed 34 mph    
Visibility 7.9 miles    
Events Rain    
Averages and records for this station are not official NWS values.
T = Trace of Precipitation, MM = Missing Value Source: Averaged Metar Reports

Daily Weather History Graph

Daily Weather History Graph

Search for Another Location

Airport:

Trip Planner

Search our weather history database for the weather conditions in past years. The results will help you decide how hot, cold, wet, or windy it might be!

Date:

Astronomy

Feb. 06, 2014 Rise Set
Actual Time 8:10 AM CET 5:42 PM CET
Civil Twilight 7:35 AM CET 6:17 PM CET
Nautical Twilight 6:56 AM CET 6:56 PM CET
Astronomical Twilight 6:18 AM CET 7:34 PM CET
Moon 11:03 AM CET (2/6) 1:08 AM CET (2/6)
Length of Visible Light 10h 41m
Length of Day
9h 31m
Waxing Crescent, 46% of the Moon is Illuminated
Feb 6
Waxing Crescent
Feb 6
First Quarter
Feb 15
Full
Feb 22
Last Quarter
Mar 1
New

Hourly Weather History & Observations

Time (CET) Temp. Windchill Dew Point Humidity Pressure Visibility Wind Dir Wind Speed Gust Speed Precip Events Conditions
12:00 AM 46 °F - 39 °F 69% 29.46 in 12 mi SSW 20.1 mph - -   Partly Cloudy
12:20 AM 46.4 °F 39.0 °F 39.2 °F 76% 29.44 in 6.2 mi SSW 19.6 mph - N/A   Scattered Clouds
12:50 AM 46.4 °F 38.7 °F 39.2 °F 76% 29.47 in 6.2 mi SSW 20.7 mph - N/A   Scattered Clouds
1:00 AM 46 °F - 39 °F 69% 29.49 in 16 mi SSW 20.1 mph - -   Partly Cloudy
1:20 AM 46.4 °F 38.5 °F 39.2 °F 76% 29.47 in 6.2 mi SSW 21.9 mph - N/A   Scattered Clouds
1:50 AM 46.4 °F 39.0 °F 39.2 °F 76% 29.50 in 6.2 mi SSW 19.6 mph - N/A   Scattered Clouds
2:00 AM 46 °F - 39 °F 69% 29.51 in 16 mi SSW 20.1 mph - -   Partly Cloudy
2:20 AM 46.4 °F 38.7 °F 35.6 °F 66% 29.50 in 6.2 mi SW 20.7 mph - N/A   Scattered Clouds
2:50 AM 44.6 °F 36.9 °F 37.4 °F 76% 29.50 in - SW 18.4 mph 29.9 mph N/A   Clear
3:00 AM 45 °F - 37 °F 64% 29.54 in 16 mi SW 17.9 mph - -   Scattered Clouds
3:20 AM 44.6 °F 36.6 °F 37.4 °F 76% 29.53 in 6.2 mi SW 19.6 mph 31.1 mph N/A   Partly Cloudy
3:50 AM 44.6 °F 36.1 °F 37.4 °F 76% 29.53 in 6.2 mi SW 21.9 mph 34.5 mph N/A   Partly Cloudy
4:00 AM 45 °F - 38 °F 67% 29.55 in 16 mi SW 22.4 mph - -   Scattered Clouds
4:20 AM 44.6 °F 36.6 °F 37.4 °F 76% 29.53 in 6.2 mi SW 19.6 mph - N/A   Partly Cloudy
4:50 AM 44.6 °F 35.9 °F 37.4 °F 76% 29.53 in 6.2 mi SW 23.0 mph - N/A   Partly Cloudy
5:00 AM 44 °F - 37 °F 68% 29.57 in 16 mi SW 22.4 mph - -   Scattered Clouds
5:20 AM 44.6 °F 36.6 °F 37.4 °F 76% 29.56 in 6.2 mi SW 19.6 mph - N/A   Partly Cloudy
5:50 AM 42.8 °F 34.3 °F 37.4 °F 81% 29.56 in 6.2 mi SSW 19.6 mph - N/A   Partly Cloudy
6:00 AM 44 °F - 37 °F 67% 29.58 in 16 mi SSW 20.1 mph - -   Scattered Clouds
6:20 AM 42.8 °F 34.5 °F 37.4 °F 81% 29.56 in 6.2 mi SW 18.4 mph - N/A   Scattered Clouds
6:50 AM 42.8 °F 34.8 °F 37.4 °F 81% 29.56 in 6.2 mi SSW 17.3 mph - N/A   Partly Cloudy
7:00 AM 43 °F - 37 °F 72% 29.59 in 12 mi SSW 17.9 mph - -   Scattered Clouds
7:20 AM 42.8 °F 34.8 °F 37.4 °F 81% 29.56 in 6.2 mi SSW 17.3 mph - N/A   Partly Cloudy
7:50 AM 42.8 °F 34.8 °F 37.4 °F 81% 29.56 in 6.2 mi SSW 17.3 mph - N/A   Partly Cloudy
8:00 AM 43 °F - 37 °F 71% 29.60 in 12 mi SSW 17.9 mph - -   Scattered Clouds
8:20 AM 42.8 °F 34.5 °F 37.4 °F 81% 29.59 in 6.2 mi SSW 18.4 mph - N/A   Partly Cloudy
8:50 AM 42.8 °F 34.5 °F 37.4 °F 81% 29.59 in - SSW 18.4 mph - N/A   Clear
9:00 AM 43 °F - 37 °F 72% 29.62 in 12 mi SSW 17.9 mph - -   Clear
9:20 AM 42.8 °F 34.5 °F 37.4 °F 81% 29.59 in 6.2 mi SSW 18.4 mph - N/A   Partly Cloudy
9:50 AM 44.6 °F 37.2 °F 37.4 °F 76% 29.62 in 6.2 mi SSW 17.3 mph - N/A   Partly Cloudy
10:00 AM 44 °F - 38 °F 71% 29.63 in 12 mi SSW 17.9 mph - -   Scattered Clouds
10:20 AM 44.6 °F 37.8 °F 37.4 °F 76% 29.59 in 6.2 mi SSW 15.0 mph - N/A   Scattered Clouds
10:50 AM 46.4 °F 39.8 °F 39.2 °F 76% 29.59 in 6.2 mi SSW 16.1 mph - N/A   Scattered Clouds
11:00 AM 46 °F - 38 °F 67% 29.62 in 12 mi SSW 15.7 mph - -   Partly Cloudy
11:20 AM 46.4 °F 40.1 °F 39.2 °F 76% 29.62 in 6.2 mi SSW 15.0 mph - N/A   Partly Cloudy
11:50 AM 48.2 °F - 39.2 °F 71% 29.62 in 6.2 mi SSW 16.1 mph - N/A   Partly Cloudy
12:00 PM 48 °F - 39 °F 61% 29.63 in 12 mi SSW 15.7 mph - -   Scattered Clouds
12:20 PM 48.2 °F - 39.2 °F 71% 29.62 in 6.2 mi SSW 15.0 mph - N/A   Scattered Clouds
12:50 PM 48.2 °F - 39.2 °F 71% 29.59 in 6.2 mi SSW 17.3 mph - N/A   Scattered Clouds
1:00 PM 48 °F - 39 °F 63% 29.62 in 12 mi SSW 17.9 mph - -   Partly Cloudy
1:20 PM 48.2 °F - 37.4 °F 66% 29.59 in 6.2 mi SSW 17.3 mph - N/A   Scattered Clouds
1:50 PM 48.2 °F - 37.4 °F 66% 29.56 in 6.2 mi South 15.0 mph - N/A   Partly Cloudy
2:00 PM 48 °F - 38 °F 59% 29.58 in 12 mi South 15.7 mph - -   Scattered Clouds
2:20 PM 48.2 °F - 37.4 °F 66% 29.53 in 6.2 mi South 15.0 mph - N/A   Partly Cloudy
2:50 PM 48.2 °F - 39.2 °F 71% 29.53 in 6.2 mi South 15.0 mph - N/A Rain Light Rain
3:00 PM 47 °F - 38 °F 63% 29.54 in 12 mi South 13.4 mph - - Rain Light Rain
3:20 PM 46.4 °F 40.4 °F 39.2 °F 76% 29.50 in 6.2 mi South 13.8 mph - N/A Rain Light Rain
3:50 PM 46.4 °F 40.7 °F 39.2 °F 76% 29.47 in 5.6 mi South 12.7 mph - N/A Rain Light Rain
4:00 PM 46 °F - 39 °F 68% 29.51 in 6 mi South 13.4 mph - - Rain Light Rain
4:20 PM 42.8 °F 34.0 °F 37.4 °F 81% 29.47 in 3.7 mi South 20.7 mph - N/A Rain Light Rain
4:50 PM 41.0 °F 31.9 °F 39.2 °F 93% 29.44 in 3.7 mi SSE 19.6 mph 34.5 mph N/A Rain Rain
5:00 PM 42 °F - 40 °F 88% 29.47 in 4 mi SSE 20.1 mph - - Rain Rain
5:20 PM 41.0 °F 33.1 °F 39.2 °F 93% 29.42 in 5.0 mi SE 15.0 mph - N/A Rain Light Rain
5:50 PM 42.8 °F 35.4 °F 39.2 °F 87% 29.39 in 4.3 mi SSE 15.0 mph - N/A Rain Light Rain
6:00 PM 42 °F - 39 °F 87% 29.41 in 4 mi SSE 15.7 mph - - Rain Light Rain
6:20 PM 42.8 °F 34.8 °F 39.2 °F 87% 29.36 in 4.3 mi SSE 17.3 mph - N/A Rain Rain
6:50 PM 42.8 °F 35.8 °F 39.2 °F 87% 29.36 in 6.2 mi SSE 13.8 mph - N/A Rain Light Rain
7:00 PM 43 °F - 39 °F 82% 29.37 in 12 mi SSE 13.4 mph - - Rain Light Rain
7:20 PM 42.8 °F 36.2 °F 39.2 °F 87% 29.33 in 6.2 mi SSE 12.7 mph - N/A Rain Light Rain
7:50 PM 44.6 °F 38.1 °F 39.2 °F 81% 29.33 in 6.2 mi SSE 13.8 mph - N/A Rain Light Rain
8:00 PM 44 °F - 39 °F 78% 29.34 in 7 mi SSE 13.4 mph - - Rain Light Rain
8:20 PM 44.6 °F 37.4 °F 37.4 °F 76% 29.30 in 6.2 mi SSE 16.1 mph - N/A   Partly Cloudy
8:50 PM 44.6 °F 38.1 °F 39.2 °F 81% 29.30 in 6.2 mi SSE 13.8 mph - N/A   Partly Cloudy
9:00 PM 46 °F - 39 °F 67% 29.30 in 31 mi SSE 13.4 mph - - Rain Light Rain
9:20 PM 46.4 °F 39.8 °F 37.4 °F 71% 29.27 in - South 16.1 mph - N/A   Clear
9:50 PM 48.2 °F - 39.2 °F 71% 29.27 in - South 15.0 mph - N/A   Clear
10:00 PM 48 °F - 38 °F 60% 29.28 in 31 mi South 15.7 mph - -   Partly Cloudy
10:20 PM 48.2 °F - 39.2 °F 71% 29.24 in - South 13.8 mph - N/A   Clear
10:50 PM 50.0 °F - 39.2 °F 66% 29.24 in - South 16.1 mph - N/A   Clear
11:00 PM 49 °F - 39 °F 60% 29.24 in 31 mi South 15.7 mph - -   Mostly Cloudy
11:20 PM 50.0 °F - 39.2 °F 66% 29.21 in 6.2 mi South 15.0 mph - N/A   Scattered Clouds
11:50 PM 50.0 °F - 39.2 °F 66% 29.21 in 6.2 mi South 16.1 mph - N/A Rain Light Rain